Weather observations for the past three days for
Oceanside, Camp Pendleton, Marine Corps Air Station
Imperial (Metric)
Date Time (pdt) Wind (mph) Vis. (mi.) Weather Sky Cond. Temperature (ºF) Relative Humidity Wind Chill (°F) Heat Index (°F) Pressure Precipitation (in)
Air Dwpt 6 hour altimeter (in) sea level (mb) 1 hr 3 hr 6 hr
Max. Min.
17 21:55 S 6 10.00 Mostly Cloudy SCT010 BKN012 71.1 62.1 73% 29.96 1014.4
17 17:55 S 12 9.00 A Few Clouds FEW010 75 62.1 64% 77 29.9 1012.4
17 16:55 S 12 10.00 Fair CLR 75.9 62.1 80.1 75.9 62% 78 29.89 1012.2
17 14:55 SW 8 G 17 10.00 Fair CLR 78.1 63 60% 80 29.93 1013.4
17 13:55 SW 9 10.00 Fair CLR 78.1 63 60% 80 29.95 1014.0
17 11:55 SW 7 10.00 Fair CLR 78.1 64 62% 80 29.98 1015.2
17 10:55 SW 7 10.00 Fair CLR 75.9 64 75.9 70 67% 78 29.99 1015.3
17 08:55 Calm 10.00 Overcast OVC015 73 63 71% 29.99 1015.6
17 07:55 SW 3 10.00 Overcast OVC014 71.1 63 76% 29.99 1015.5
17 06:55 Calm 10.00 Overcast OVC015 71.1 63 76% 29.99 1015.4
17 03:55 Calm 10.00 Overcast OVC014 70 62.1 76% 29.95 1014.0
17 02:55 Calm 10.00 Overcast OVC014 68 62.1 81% 29.95 1014.1
16 22:55 Calm 10.00 Fair CLR 66 61 77 66 84% 29.95 1014.1
16 21:55 Calm 10.00 Fair CLR 70 63 79% 29.95 1014.2
16 20:55 SW 3 10.00 A Few Clouds FEW010 71.1 63 76% 29.95 1013.9
16 19:55 SW 3 10.00 A Few Clouds FEW010 72 63 73% 29.94 1013.8
16 18:55 S 10 10.00 Fair CLR 73.9 61 64% 29.93 1013.6
16 17:55 SW 7 10.00 Fair CLR 75.9 61 60% 78 29.92 1013.1
16 15:55 W 9 10.00 Fair CLR 79 63 58% 81 29.94 1013.8
16 14:55 SW 9 G 20 10.00 Fair CLR 79 63 58% 81 29.96 1014.4
16 13:55 SW 9 G 18 10.00 Fair CLR 79 64 60% 81 29.97 1014.8
16 12:55 S 10 10.00 Fair CLR 80.1 64 58% 82 29.99 1015.3
16 11:55 S 7 10.00 Fair CLR 79 64 60% 81 30 1015.6
16 10:55 Vrbl 5 10.00 Mostly Cloudy BKN017 75.9 64 77 69.1 67% 78 30.01 1016.1
16 09:55 Calm 10.00 Overcast OVC014 73 63 71% 30.02 1016.5
16 08:55 Vrbl 3 10.00 Overcast OVC012 71.1 63 76% 30.01 1016.2
16 07:55 Calm 9.00 Overcast OVC011 70 63 79% 30.02 1016.4
16 06:55 Calm 10.00 Overcast OVC011 70 63 79% 30.01 1016.0
16 04:55 Calm 10.00 Overcast OVC010 70 63 70 66 79% 29.97 1014.7
16 03:55 Calm 10.00 Overcast OVC011 70 63 79% 29.96 1014.5
16 00:55 Calm 10.00 Overcast OVC013 68 62.1 81% 30 1015.6
15 22:55 Vrbl 3 10.00 Partly Cloudy SCT008 SCT015 66.9 61 77 66.9 81% 30 1015.6
15 21:55 Vrbl 3 10.00 Partly Cloudy SCT008 SCT015 69.1 62.1 78% 29.99 1015.4
15 20:55 Vrbl 3 10.00 Partly Cloudy SCT008 SCT010 69.1 62.1 78% 29.96 1014.5
15 19:55 S 3 10.00 Partly Cloudy SCT008 SCT010 71.1 63 76% 29.94 1013.9
15 18:55 S 3 10.00 A Few Clouds FEW008 73 63 71% 29.93 1013.5
15 17:55 S 3 10.00 A Few Clouds FEW010 75.9 63 64% 78 29.93 1013.3
15 16:55 S 3 10.00 Fair CLR 77 64 82 75.9 64% 79 29.93 1013.3
15 15:55 SW 10 10.00 Fair CLR 79 64 60% 81 29.94 1013.9
15 13:55 SW 7 10.00 Fair CLR 80.1 64 58% 82 29.97 1014.8
15 12:55 SW 9 G 16 10.00 Fair CLR 80.1 64 58% 82 29.99 1015.6
15 11:55 Vrbl 6 10.00 Fair CLR 80.1 64.9 60% 82 30.01 1016.2
15 10:55 S 8 10.00 Partly Cloudy SCT012 77 64 77 69.1 64% 79 30.03 1016.8
15 09:55 S 5 10.00 Overcast OVC011 72 64 76% 30.05 1017.6
15 08:55 S 5 10.00 Overcast OVC009 71.1 63 76% 30.06 1017.9
15 07:55 SW 3 10.00 Overcast OVC009 70 64 82% 30.06 1017.8
15 06:55 Calm 9.00 Overcast OVC008 70 64 82% 30.06 1017.7
15 05:55 Calm 10.00 Overcast OVC008 70 64 82% 30.04 1017.0
Date Time (pdt) Wind (mph) Vis. (mi.) Weather Sky Cond. Air Dwpt Max. Min. Relative Humidity Wind Chill (°F) Heat Index (°F) altimeter (in) sea level (mb) 1 hr 3 hr 6 hr
6 hour
Temperature (ºF) Pressure Precipitation (in)